Preview of NWS' New Version of Forecast
This preview is not operational and should not be used for support decisions.

Regional Weather Roundup (RWR)

Issued by Gray - Portland, ME (GYX)

                            
000
ASUS41 KGYX 211805
RWRGYX
WEATHER ROUNDUP FOR MAINE AND NEW HAMPSHIRE
NATIONAL WEATHER SERVICE GRAY ME
200 PM EDT SUN APR 21 2019

MEZ002-005-006-010-012-015-018-020-021-024-026-027-029-211900-
MAINE
  
CITY           SKY/WX    TMP DP  RH WIND       PRES   REMARKS
PORTLAND       CLOUDY    57  54  89 SE8       30.05S                  
6HR MIN TEMP:  50; 6HR MAX TEMP:  59; 6HR PCP:  0.03;                

SANFORD        PTSUNNY   62  56  80 SE7       30.05S                  
BAR HARBOR     FOG       52  52 100 S6        30.10S VSB 1/4          
WISCASSET      CLOUDY    55  53  93 SE5       30.08R                  
6HR MIN TEMP:  51; 6HR MAX TEMP:  56; 6HR PCP:  0.12;                

ROCKLAND       CLOUDY    52  52 100 SE6       30.07F                  
FRYEBURG       PTSUNNY   69  55  60 E5        30.01F                  
6HR MIN TEMP:  56; 6HR MAX TEMP:  69; 6HR PCP: TRACE;                

LEWISTONAUBURN CLOUDY    61  57  87 S9        30.04F                  
AUGUSTA        CLOUDY    59  58  96 S7        30.05S                  
6HR MIN TEMP:  53; 6HR MAX TEMP:  59; 6HR PCP:  0.04;                

WATERVILLE     CLOUDY    61  58  90 S5        30.02S                  
BANGOR         LGT RAIN  56  55  97 S7        30.06F FOG              
6HR MIN TEMP:  52; 6HR MAX TEMP:  56; 6HR PCP:  0.01;                

GREENVILLE       N/A     54  53  97 SE10      30.01R                  
6HR MIN TEMP:  48; 6HR MAX TEMP:  54;                                

MILLINOCKET    LGT RAIN  59  56  89 S6        30.05S                  
6HR MIN TEMP:  42; 6HR MAX TEMP:  59; 6HR PCP: TRACE;                

HOULTON        CLOUDY    61  56  83 S7        30.02F                  
6HR MIN TEMP:  46; 6HR MAX TEMP:  61;                                

PRESQUE ISLE   CLOUDY    59  56  89 S10       30.00F                  
6HR MIN TEMP:  44; 6HR MAX TEMP:  59; 6HR PCP: TRACE;                

FRENCHVILLE    CLOUDY    54  51  90 SE5       29.97F FOG              
6HR MIN TEMP:  43; 6HR MAX TEMP:  54;                                

CARIBOU        CLOUDY    60  54  80 S7        29.99F                  
6HR MIN TEMP:  45; 6HR MAX TEMP:  60; 6HR PCP:  0.01;                

$$

NHZ002-005-008-009-011-012-014-211900-
NEW HAMPSHIRE
  
CITY           SKY/WX    TMP DP  RH WIND       PRES   REMARKS
PORTSMOUTH     PTSUNNY   60  57  89 SE7       30.03F                  
ROCHESTER      CLOUDY    65  57  75 S10       30.03F                  
6HR MIN TEMP:  56; 6HR MAX TEMP:  66;                                

NASHUA         CLOUDY    66  58  75 SE9       30.01F                  
MANCHESTER     LGT RAIN  67  56  67 SE8       30.00F                  
6HR MIN TEMP:  59; 6HR MAX TEMP:  67; 6HR PCP: TRACE;                

CONCORD        CLOUDY    64  55  72 S5        30.02R                  
6HR MIN TEMP:  57; 6HR MAX TEMP:  66; 6HR PCP:  0.01;                

LACONIA        CLOUDY    65  54  67 VRB7      30.03S                  
PLYMOUTH       PTSUNNY   63  54  73 CALM      30.02R                  
BERLIN         CLOUDY    66  46  48 S7        30.00S                  
6HR MIN TEMP:  55; 6HR MAX TEMP:  67; 6HR PCP: TRACE;                

WHITEFIELD     LGT RAIN  65  46  50 VRB3      30.00S                  
6HR MIN TEMP:  56; 6HR MAX TEMP:  67; 6HR PCP: TRACE;                

JAFFREY        PTSUNNY   65  53  65 SE6       30.01F                  
6HR MIN TEMP:  55; 6HR MAX TEMP:  65; 6HR PCP:  0.01;                

KEENE          PTSUNNY   63  54  72 CALM      30.03S                  
LEBANON        PTSUNNY   67  49  52 S9G16     29.99S                  
6HR MIN TEMP:  55; 6HR MAX TEMP:  68;                                

MT WASHINGTON  NOT AVBL                                               
$$

VTZ005-007-008-211900-
VERMONT
  
CITY           SKY/WX    TMP DP  RH WIND       PRES   REMARKS
ST JOHNSBURY     N/A     67  49  52 MISG      29.97F                  
MONTPELIER     PTSUNNY   67  48  50 S12G17    30.02S                  
BURLINGTON     PTSUNNY   73  42  32 S16G24    29.95S                  
$$

MAZ007-012-024-CTZ003-RIZ002-NYZ038-NYZ072-211900-
SOUTHERN NEW ENGLAND AND NY
  
CITY           SKY/WX    TMP DP  RH WIND       PRES   REMARKS
BOSTON         CLOUDY    57  53  86 E7        30.03S                  
WORCESTER      CLOUDY    61  55  81 E6        30.03R                  
NANTUCKET      FOG       51  51 100 S7        30.04F VSB 1/4          
PROVIDENCE     CLOUDY    61  58  90 SE7       30.02F                  
HARTFORD       CLOUDY    62  54  74 S12       30.03R                  
ALBANY         FAIR      69  49  48 S14G22    29.98S                  
NEW YORK CITY  PTSUNNY   60  50  69 SE9       30.01S                  
$$

ANZ081-ANZ082-ANZ150-NHZ014-MEZ023>029-211900-
COASTAL MARINE OBSERVATIONS
  
STATION/POSITION TIME  TEMP    WIND        PRES    WAVE
                       AIR SEA DIR/SP/G            HT/PER
                 (UTC) (F)     (DEG/KT/KT) (MB)    (FT/S)
ISLE OF SHOALS   1700   53     140/ 11/ 11 1017.5F
JEFFREYS LEDGE   1708      43                N/A     5/10
$$

.............KEY..............
   WCI - WIND CHILL
   TC  - TEMPERATURE IN CELSIUS
   VSB - VISIBILITY IN MILES
   HX  - HEAT INDEX
   FAIR- INDICATES FEW OR NO CLOUDS BELOW 12,000 FT, WITH NO 
         SIGNIFICANT WEATHER AND/OR OBSTRUCTIONS TO VISIBILITY.